Regional Weather Roundup
Issued by NWS

Home | Current Version | Previous Version | Text Only | Print | Product List | Glossary Off
Versions: 1 2 3 4 5 6 7 8 9 10 11 12 13 14 15 16 17 18 19 20 21 22 23 24 25 26 27 28 29 30 31 32 33 34 35 36 37 38 39 40 41 42 43 44 45 46 47 48 49 50

000
ASUS43 KMKX 221811
RWRWI

WISCONSIN REGIONAL WEATHER ROUNDUP
NATIONAL WEATHER SERVICE MILWAUKEE/SULLIVAN WI
100 PM CDT THU JUN 22 2017

NOTE: "FAIR" INDICATES FEW OR NO CLOUDS BELOW 12,000 FEET WITH NO
SIGNIFICANT WEATHER AND/OR OBSTRUCTIONS TO VISIBILITY.

WIZ001-002-006>008-014>016-023>028-221900-
NORTHWEST WISCONSIN

CITY           SKY/WX    TMP DP  RH WIND       PRES   REMARKS
SUPERIOR ARPT  NOT AVBL
ASHLAND        CLOUDY    70  54  56 SW6       29.72R
6HR MIN TEMP:  59; 6HR MAX TEMP:  73;

HAYWARD        CLOUDY    67  60  78 S5        29.72F
6HR MIN TEMP:  65; 6HR MAX TEMP:  68; 6HR PCP: TRACE;

SIREN          CLOUDY    65  58  78 CALM      29.71F
6HR MIN TEMP:  65; 6HR MAX TEMP:  66; 6HR PCP:  0.02;

CUMBERLAND     LGT RAIN  63  59  88 NE3       29.70F
RICE LAKE      RAIN      64  62  93 SE6       29.74F
6HR MIN TEMP:  63; 6HR MAX TEMP:  67; 6HR PCP:  0.32;

CHETEK         RAIN      65  65  98 E9        29.70F
6HR MIN TEMP:  63; 6HR MAX TEMP:  69; 6HR PCP:  0.34;

LADYSMITH      RAIN      65  63  93 SW3       29.78F
6HR MIN TEMP:  63; 6HR MAX TEMP:  68; 6HR PCP:  0.19;

EAU CLAIRE     LGT RAIN  68  68 100 NE6       29.69F FOG
6HR MIN TEMP:  66; 6HR MAX TEMP:  71; 6HR PCP:  0.27;

MENOMONIE      LGT RAIN  68  68  99 CALM      29.71F
6HR MIN TEMP:  66; 6HR MAX TEMP:  71; 6HR PCP:  0.24;

NEW RICHMOND   DRIZZLE   64  63  94 CALM      29.69F
6HR MIN TEMP:  64; 6HR MAX TEMP:  68; 6HR PCP:  0.37;

OSCEOLA        RAIN      66  66 100 CALM      29.74S
6HR MIN TEMP:  64; 6HR MAX TEMP:  68; 6HR PCP:  0.17;

$$

WIZ003>005-009-010-017-018-221900-
NORTH CENTRAL WISCONSIN

CITY           SKY/WX    TMP DP  RH WIND       PRES   REMARKS
MANITOWISH WTR CLOUDY    64  64 100 SW8       29.76R
6HR MIN TEMP:  64; 6HR MAX TEMP:  66;

ARBOR VITAE    LGT RAIN  64  63  94 CALM      29.77R
6HR MIN TEMP:  64; 6HR MAX TEMP:  69; 6HR PCP:  0.04;

WOODRUFF       LGT RAIN  64  63  94 CALM      29.77R
6HR MIN TEMP:  64; 6HR MAX TEMP:  69; 6HR PCP:  0.04;

RHINELANDER    RAIN      67  67 100 W8        29.78R FOG
6HR MIN TEMP:  64; 6HR MAX TEMP:  71; 6HR PCP:  0.04;

EAGLE RIVER    RAIN      65  64  95 SW6       29.75R
6HR MIN TEMP:  64; 6HR MAX TEMP:  69;

LAND O LAKES   RAIN      66  64  91 SW7       29.76R
6HR MIN TEMP:  64; 6HR MAX TEMP:  68; 6HR PCP:  0.01;

PHILLIPS       RAIN      63  63  97 SW6       29.78R
6HR MIN TEMP:  62; 6HR MAX TEMP:  67; 6HR PCP:  0.22;

TOMAHAWK       NOT AVBL
MEDFORD        HVY RAIN  67  64  92 W10       29.81R
6HR MIN TEMP:  65; 6HR MAX TEMP:  70; 6HR PCP:  0.11;

MERRILL        RAIN      70  68  93 W9        29.76R
6HR MIN TEMP:  65; 6HR MAX TEMP:  73; 6HR PCP:  0.01;

$$

WIZ029-030-035-036-043>047-221900-
CENTRAL WISCONSIN

CITY           SKY/WX    TMP DP  RH WIND       PRES   REMARKS
WAUSAU         RAIN      69  68  96 SW8       29.76R FOG
6HR MIN TEMP:  65; 6HR MAX TEMP:  70; 6HR PCP:  0.20;

MOSINEE        LGT RAIN  68  66  94 W7        29.79R FOG
MARSHFIELD     HVY RAIN  67  64  90 SW8G20    29.79R VSB 1/4
6HR MIN TEMP:  66; 6HR MAX TEMP:  70; 6HR PCP:  1.09;

STEVENS POINT  DRIZZLE   68  68 100 SW8       29.78R
6HR MIN TEMP:  64; 6HR MAX TEMP:  69; 6HR PCP:  0.38;

WAUPACA        CLOUDY    76  68  74 SW8       29.75R
6HR MIN TEMP:  66; 6HR MAX TEMP:  78; 6HR PCP:  0.02;

WAUTOMA        CLOUDY    74  67  78 SW10      29.79R
6HR MIN TEMP:  69; 6HR MAX TEMP:  75;

WISC RAPIDS    CLOUDY    72  68  87 W8        29.79R
6HR MIN TEMP:  69; 6HR MAX TEMP:  73; 6HR PCP:  0.10;

CAMP DOUGLAS   LGT RAIN  68  66  94 NW3       29.76F FOG
                                      6HR PCP:  0.08;

$$

WIZ011>013-019>022-031-037>040-048>050-221900-
NORTHEAST WISCONSIN

CITY           SKY/WX    TMP DP  RH WIND       PRES   REMARKS
ANTIGO         CLOUDY    68  67  95 W12       29.76R
SHAWANO        CLOUDY    72  69  91 S3        29.72R
6HR MIN TEMP:  66; 6HR MAX TEMP:  73; 6HR PCP:  0.74;

OCONTO         CLOUDY    71  68  92 SW8       29.71S
6HR MIN TEMP:  64; 6HR MAX TEMP:  75; 6HR PCP:  0.03;

STURGEON BAY   LGT RAIN  72  68  87 W5          N/A
6HR MIN TEMP:  65; 6HR MAX TEMP:  75;

GREEN BAY      CLOUDY    77  69  76 SW10      29.72F
6HR MIN TEMP:  65; 6HR MAX TEMP:  77;

MANITOWOC      CLOUDY    79  63  57 W13G20    29.74F HX  80
6HR MIN TEMP:  62; 6HR MAX TEMP:  81; 6HR PCP: TRACE;

APPLETON       PTSUNNY   75  64  69 SW10      29.73F
CLINTONVILLE   CLOUDY    73  66  78 SW10      29.73R
OSHKOSH        LGT RAIN  75  66  73 W5        29.75R
6HR MIN TEMP:  69; 6HR MAX TEMP:  77; 6HR PCP:  0.03;

$$

WIZ032>034-041-042-053>061-221900-
SOUTHWEST WISCONSIN

CITY           SKY/WX    TMP DP  RH WIND       PRES   REMARKS
LA CROSSE      LGT RAIN  70  68  93 NW12      29.75R
6HR MIN TEMP:  69; 6HR MAX TEMP:  76; 6HR PCP:  0.18;

SPARTA         LGT RAIN  66  65  97 N5        29.74F
6HR MIN TEMP:  66; 6HR MAX TEMP:  73; 6HR PCP:  0.12;

VIROQUA        CLOUDY    68  66  94 CALM      29.76F
6HR MIN TEMP:  67; 6HR MAX TEMP:  72; 6HR PCP:  0.04;

BOSCOBEL       CLOUDY    73  68  84 VRB3      29.76R
6HR MIN TEMP:  67; 6HR MAX TEMP:  74; 6HR PCP:  0.12;

PRAIRIE DU CHI CLOUDY    70  68  95 E3        29.72F
PLATTEVILLE    CLOUDY    78  69  72 S12G20    29.77S HX  81
6HR MIN TEMP:  71; 6HR MAX TEMP:  80;

$$

WIZ056-057-062-063-064-067-068-221900-
SOUTH CENTRAL WISCONSIN

CITY           SKY/WX    TMP DP  RH WIND       PRES   REMARKS
REEDSBURG      CLOUDY    69  68  94 NW6       29.79F
BARABOO/DELLS  DRIZZLE   67  65  91 NW5       29.81R
6HR MIN TEMP:  67; 6HR MAX TEMP:  70; 6HR PCP:  0.03;

LONE ROCK      LGT RAIN  71  66  84 N6        29.77R
6HR MIN TEMP:  68; 6HR MAX TEMP:  73; 6HR PCP:  0.08;

MINERAL POINT  LGT RAIN  77  70  78 S9        29.78R
MADISON        CLOUDY    77  67  71 SW3       29.74F
6HR MIN TEMP:  69; 6HR MAX TEMP:  78; 6HR PCP:  0.14;

MIDDLETON      CLOUDY    78  67  68 SW9       29.76R HX  80
6HR MIN TEMP:  70; 6HR MAX TEMP:  79; 6HR PCP:  0.15;

WATERTOWN      CLOUDY    76  69  78 S10G17    29.74F
6HR MIN TEMP:  66; 6HR MAX TEMP:  76; 6HR PCP:  0.01;

MONROE         MOSUNNY   81  64  57 S16G22    29.78F HX  82
JANESVILLE     PTSUNNY   82  66  57 S12G17    29.77F HX  85
$$

WIZ051-052-058>065-066-070>072-221900-
SOUTHEAST WISCONSIN

CITY           SKY/WX    TMP DP  RH WIND       PRES   REMARKS
MILWAUKEE      PTSUNNY   85  67  54 SW23G29   29.76F HX  87
6HR MIN TEMP:  74; 6HR MAX TEMP:  85; 6HR PCP: TRACE;

WAUKESHA       MOSUNNY   79  64  61 SW10G21   29.78F HX  81
MILWAUKEE/TIMM SUNNY     79  64  61 SW6       29.77F HX  81
RACINE         CLOUDY    82  66  58 SW16G29   29.79F HX  84
6HR MIN TEMP:  75; 6HR MAX TEMP:  84;

KENOSHA        MOSUNNY   82  69  64 SW13      29.79F HX  85
6HR MIN TEMP:  75; 6HR MAX TEMP:  82; 6HR PCP: TRACE;

FOND DU LAC    LGT RAIN  74  66  76 S5        29.76R
6HR MIN TEMP:  69; 6HR MAX TEMP:  77; 6HR PCP:  0.05;

SHEBOYGAN      LGT RAIN  77  67  71 SW13      29.76S
6HR MIN TEMP:  69; 6HR MAX TEMP:  81; 6HR PCP:  0.06;

WEST BEND      CLOUDY    72  64  78 CALM      29.77S
JUNEAU         CLOUDY    72  66  82 CALM      29.77R
6HR MIN TEMP:  65; 6HR MAX TEMP:  73;

$$

LSZ147-162-221900-
LAKE SUPERIOR

STATION/POSITION TIME  TEMP    WIND        PRES    WAVE
                       AIR SEA DIR/SP/G            HT/PER
                 (UTC) (F)     (DEG/KT/KT) (MB)    (FT/S)
W MID LAKE BUOY  1750   47 39  250/ 10/ 12 1004.7S   1
DEVILS ISLAND    1800   58     200/  8/ 12 1005.2R
SAXON HARBOR     1740   71     230/  2/  4 1006.1R
$$

LMZ867-665-643>646-221900-
LAKE MICHIGAN

STATION/POSITION TIME  TEMP    WIND        PRES    WAVE
                       AIR SEA DIR/SP/G            HT/PER
                 (UTC) (F)     (DEG/KT/KT) (MB)    (FT/S)
CHAMBERS ISLAND  1740   69     200/  4/  7 1005.4F
N MID LAKE BUOY  1750   59 54  200/ 10/ 14 1006.7R   3/ 5
NORTHPORT PIER   1740   70     260/  3/  8 1005.8S
KEWAUNEE LAKESHO 1748   62     160/  7/ 10 1006.6R
SHEBOYGAN LAKESH 1800   71     210/  8/  9 1007.2S
PORT WASHINGTON  1800   65     180/  7/ 18 1008.5
ATWATER BUOY     1739   70 56  120/  6/ 10 1007.9F
MILWAUKEE LAKESH 1750   81



USA.gov is the U.S. government's official web portal to all federal, state and local government web resources and services.